When you browse on this site, cookies collect data to enhance your experience and personalize the content and advertising you see.
Visit our Privacy Policy to learn more. By continuing to use the site, you agree to this use of cookies and data.
  • în România
  • Lista ţărilor
  • Pe 7 zile
  • Temperatura apei
  • Hartă satelitară
  • Meteo pe hartă
  • Widget-uri
  • user-avatar
    Intrare

    Meteo pe oră la Pontypool

    Astăzi, 18 Ianuarie, Vineri

    Timp Temperatura Precipitaţii Vânt Presiune Umiditate
    00:00 +1°C° 0 mm 2 m/s 748 mmHg 76%
    01:00 +1°C° 0 mm 2 m/s 748 mmHg 76%
    02:00 0°C° 0 mm 3 m/s 747 mmHg 77%
    03:00 0°C° 0 mm 3 m/s 747 mmHg 77%
    04:00 0°C° 0 mm 3 m/s 747 mmHg 76%
    05:00 0°C° 0 mm 4 m/s 746 mmHg 75%
    06:00 0°C° 0 mm 5 m/s 746 mmHg 72%
    07:00 0°C° 0.1 mm 5 m/s 745 mmHg 72%
    08:00 +1°C° 0.1 mm 6 m/s 745 mmHg 72%
    09:00 +1°C° 0.1 mm 6 m/s 744 mmHg 72%
    10:00 +2°C° 0.7 mm 7 m/s 744 mmHg 76%
    11:00 +2°C° 0.7 mm 7 m/s 744 mmHg 79%
    12:00 +1°C° 0.7 mm 8 m/s 743 mmHg 83%
    13:00 +1°C° 1 mm 8 m/s 743 mmHg 85%
    14:00 +2°C° 1 mm 7 m/s 742 mmHg 87%
    15:00 +2°C° 1 mm 7 m/s 742 mmHg 90%
    16:00 +2°C° 1.1 mm 7 m/s 741 mmHg 91%
    17:00 +2°C° 1.1 mm 7 m/s 741 mmHg 92%
    18:00 +3°C° 1.1 mm 7 m/s 741 mmHg 93%
    19:00 +3°C° 0.6 mm 6 m/s 741 mmHg 94%
    20:00 +3°C° 0.6 mm 6 m/s 741 mmHg 94%
    21:00 +5°C° 0.6 mm 5 m/s 741 mmHg 95%
    22:00 +3°C° 0.2 mm 5 m/s 740 mmHg 95%
    23:00 +4°C° 0.2 mm 4 m/s 740 mmHg 95%

    Mâine, 19 Ianuarie, Sâmbătă

    Timp Temperatura Precipitaţii Vânt Presiune Umiditate
    00:00 +4°C° 0.2 mm 4 m/s 740 mmHg 95%
    01:00 +4°C° 0 mm 4 m/s 740 mmHg 95%
    02:00 +4°C° 0 mm 4 m/s 739 mmHg 95%
    03:00 +4°C° 0 mm 4 m/s 739 mmHg 95%
    04:00 +4°C° 0 mm 4 m/s 739 mmHg 95%
    05:00 +4°C° 0 mm 4 m/s 739 mmHg 95%
    06:00 +4°C° 0 mm 4 m/s 739 mmHg 95%
    07:00 +4°C° 0.1 mm 4 m/s 739 mmHg 96%
    08:00 +4°C° 0.1 mm 3 m/s 739 mmHg 96%
    09:00 +4°C° 0.1 mm 3 m/s 739 mmHg 97%
    10:00 +4°C° 0.2 mm 3 m/s 739 mmHg 95%
    11:00 +5°C° 0.2 mm 3 m/s 739 mmHg 93%
    12:00 +5°C° 0.2 mm 3 m/s 739 mmHg 92%
    13:00 +7°C° 0.1 mm 2 m/s 739 mmHg 91%
    14:00 +7°C° 0.1 mm 2 m/s 739 mmHg 91%
    15:00 +7°C° 0.1 mm 2 m/s 739 mmHg 91%
    16:00 +7°C° 0.1 mm 2 m/s 739 mmHg 92%
    17:00 +6°C° 0.1 mm 2 m/s 739 mmHg 94%
    18:00 +5°C° 0.1 mm 2 m/s 739 mmHg 96%
    19:00 +5°C° 0 mm 2 m/s 740 mmHg 96%
    20:00 +5°C° 0 mm 2 m/s 740 mmHg 96%
    21:00 +5°C° 0 mm 2 m/s 740 mmHg 97%
    22:00 +5°C° 0 mm 2 m/s 741 mmHg 97%
    23:00 +5°C° 0 mm 2 m/s 741 mmHg 97%

    Poimâine, 20 Ianuarie, Duminică

    Timp Temperatura Precipitaţii Vânt Presiune Umiditate
    00:00 +5°C° 0 mm 2 m/s 742 mmHg 97%
    01:00 +5°C° 0 mm 2 m/s 742 mmHg 96%
    02:00 +5°C° 0 mm 2 m/s 743 mmHg 96%
    03:00 +4°C° 0 mm 2 m/s 743 mmHg 96%
    04:00 +4°C° 0 mm 2 m/s 744 mmHg 96%
    05:00 +5°C° 0 mm 1 m/s 744 mmHg 96%
    06:00 +5°C° 0 mm 1 m/s 745 mmHg 95%
    07:00 +5°C° 0 mm 1 m/s 745 mmHg 96%
    08:00 +4°C° 0 mm 1 m/s 746 mmHg 96%
    09:00 +4°C° 0 mm 1 m/s 747 mmHg 96%
    10:00 +5°C° 0 mm 1 m/s 747 mmHg 94%
    11:00 +5°C° 0 mm 1 m/s 748 mmHg 92%
    12:00 +5°C° 0 mm 2 m/s 748 mmHg 90%
    13:00 +5°C° 0 mm 2 m/s 749 mmHg 88%
    14:00 +4°C° 0 mm 3 m/s 749 mmHg 87%
    15:00 +5°C° 0 mm 3 m/s 749 mmHg 85%
    16:00 +4°C° 0 mm 3 m/s 750 mmHg 87%
    17:00 +3°C° 0 mm 3 m/s 751 mmHg 88%
    18:00 +3°C° 0 mm 2 m/s 751 mmHg 90%
    19:00 +3°C° 0 mm 2 m/s 752 mmHg 91%
    20:00 +3°C° 0 mm 2 m/s 753 mmHg 91%
    21:00 +3°C° 0 mm 2 m/s 753 mmHg 92%
    22:00 +3°C° 0 mm 2 m/s 754 mmHg 92%
    23:00 +3°C° 0 mm 2 m/s 754 mmHg 93%

    21 Ianuarie, Luni

    Timp Temperatura Precipitaţii Vânt Presiune Umiditate
    00:00 +3°C° 0 mm 2 m/s 754 mmHg 93%
    01:00 +2°C° 0 mm 3 m/s 755 mmHg 92%
    02:00 +2°C° 0 mm 3 m/s 755 mmHg 92%
    03:00 +2°C° 0 mm 3 m/s 755 mmHg 91%
    04:00 +2°C° 0 mm 3 m/s 755 mmHg 91%
    05:00 +1°C° 0 mm 3 m/s 755 mmHg 90%
    06:00 +1°C° 0 mm 3 m/s 755 mmHg 90%
    07:00 +2°C° 0 mm 2 m/s 755 mmHg 89%
    08:00 +1°C° 0 mm 2 m/s 755 mmHg 89%
    09:00 +2°C° 0 mm 1 m/s 755 mmHg 88%
    10:00 +2°C° 0 mm 2 m/s 755 mmHg 83%
    11:00 +4°C° 0 mm 2 m/s 755 mmHg 78%
    12:00 +5°C° 0 mm 2 m/s 755 mmHg 73%
    13:00 +4°C° 0 mm 3 m/s 754 mmHg 74%
    14:00 +4°C° 0 mm 4 m/s 753 mmHg 75%
    15:00 +3°C° 0 mm 5 m/s 752 mmHg 76%
    16:00 +3°C° 0 mm 6 m/s 751 mmHg 77%
    17:00 +3°C° 0 mm 6 m/s 750 mmHg 79%
    18:00 +3°C° 0 mm 7 m/s 749 mmHg 81%
    19:00 +4°C° 0.2 mm 8 m/s 748 mmHg 82%
    20:00 +3°C° 0.2 mm 9 m/s 746 mmHg 82%
    21:00 +5°C° 0.2 mm 10 m/s 745 mmHg 83%
    22:00 +3°C° 2.2 mm 10 m/s 744 mmHg 83%
    23:00 +3°C° 2.2 mm 9 m/s 743 mmHg 82%

    22 Ianuarie, Marţi

    Timp Temperatura Precipitaţii Vânt Presiune Umiditate
    00:00 +3°C° 2.2 mm 9 m/s 742 mmHg 81%
    01:00 +1°C° 0 mm 8 m/s 742 mmHg 81%
    02:00 0°C° 0 mm 7 m/s 741 mmHg 80%
    03:00 -1°C° 0 mm 6 m/s 741 mmHg 80%
    04:00 -2°C° 0 mm 6 m/s 741 mmHg 79%
    05:00 -2°C° 0 mm 6 m/s 740 mmHg 79%
    06:00 -2°C° 0 mm 6 m/s 740 mmHg 78%
    07:00 -2°C° 0 mm 6 m/s 740 mmHg 79%
    08:00 -2°C° 0 mm 6 m/s 739 mmHg 79%
    09:00 -1°C° 0 mm 6 m/s 739 mmHg 79%
    10:00 -1°C° 0.1 mm 7 m/s 739 mmHg 75%
    11:00 0°C° 0.1 mm 8 m/s 738 mmHg 70%
    12:00 0°C° 0.1 mm 9 m/s 738 mmHg 66%
    13:00 0°C° 0.1 mm 9 m/s 738 mmHg 68%
    14:00 0°C° 0.1 mm 9 m/s 737 mmHg 70%
    15:00 0°C° 0.1 mm 8 m/s 737 mmHg 72%
    16:00 -1°C° 0 mm 7 m/s 736 mmHg 74%
    17:00 -2°C° 0 mm 7 m/s 736 mmHg 76%
    18:00 -2°C° 0 mm 6 m/s 736 mmHg 78%
    19:00 -2°C° 0 mm 6 m/s 736 mmHg 78%
    20:00 -2°C° 0 mm 6 m/s 736 mmHg 79%
    21:00 -2°C° 0 mm 6 m/s 736 mmHg 80%
    22:00 -2°C° 0 mm 6 m/s 736 mmHg 81%
    23:00 -1°C° 0 mm 5 m/s 735 mmHg 82%

    23 Ianuarie, Miercuri

    Timp Temperatura Precipitaţii Vânt Presiune Umiditate
    00:00 -2°C° 0 mm 5 m/s 735 mmHg 83%
    01:00 -1°C° 0 mm 5 m/s 734 mmHg 83%
    02:00 -1°C° 0 mm 5 m/s 734 mmHg 82%
    03:00 -1°C° 0 mm 5 m/s 733 mmHg 82%
    04:00 -1°C° 0 mm 5 m/s 733 mmHg 82%
    05:00 -1°C° 0 mm 5 m/s 733 mmHg 81%
    06:00 -2°C° 0 mm 5 m/s 732 mmHg 81%
    07:00 -2°C° 0 mm 6 m/s 732 mmHg 79%
    08:00 -2°C° 0 mm 6 m/s 732 mmHg 78%
    09:00 -1°C° 0 mm 7 m/s 732 mmHg 76%
    10:00 0°C° 0.1 mm 8 m/s 732 mmHg 73%
    11:00 0°C° 0.1 mm 9 m/s 731 mmHg 71%
    12:00 +1°C° 0.1 mm 10 m/s 731 mmHg 68%
    13:00 +1°C° 0.2 mm 9 m/s 731 mmHg 69%
    14:00 0°C° 0.2 mm 9 m/s 731 mmHg 69%
    15:00 0°C° 0.2 mm 9 m/s 731 mmHg 70%
    16:00 -1°C° 0 mm 9 m/s 733 mmHg 72%
    17:00 -1°C° 0 mm 9 m/s 734 mmHg 73%
    18:00 -3°C° 0 mm 9 m/s 736 mmHg 75%
    19:00 -2°C° 0 mm 8 m/s 736 mmHg 75%
    20:00 -2°C° 0 mm 7 m/s 737 mmHg 75%
    21:00 -3°C° 0 mm 6 m/s 737 mmHg 75%
    22:00 -2°C° 0 mm 6 m/s 737 mmHg 77%
    23:00 -1°C° 0 mm 7 m/s 737 mmHg 79%
    Arată mai mult